Terug naar catalogus

THORAD AGENA D DEB

ActiefSSO
NORAD 4710·DEBRIS·🇺🇸 United States

Gelanceerd Apr 8, 1970 vanaf Vandenberg Space Force Base

Loading…

Volgende Passages (komende 24 uur)

TLE

VersSource: Space-Track

Epoch: Sep 14, 2026, 06:57 UTC

1 04710U 70025BY  26257.28976451  .00000088  00000-0  19410-3 0  9994
2 04710 100.1824 273.4477 0004305 322.5601  49.6779 13.56002921785613

Volg THORAD AGENA D DEB in realtime met AllMySat

Download on the App Store